Lid_Strength_Index
3 3 3 3 3 3 2 2 2 2 2 2 2 2 3 3 4 4 6 2 1 -1 -1 1 1 2 2 3 3 5 9 10 9 8 8 5 6 4 3 5 4 4 4 3 2
3 3 3 3 3 3 3 3 3 2 2 2 2 2 2 3 5 6 -1 -2 -1 -1 1 2 3 3 4 5 6 7 10 9 6 6 6 5 5 5 5 5 5 5 3 2 2
3 4 4 3 3 3 3 3 3 3 3 2 2 2 2 3 5 6 -1 -1 -1 -1 0 1 2 3 7 6 5 7 7 5 5 5 4 5 5 4 5 7 5 6 4 3 3
3 4 4 4 3 3 3 3 3 3 3 3 2 2 1 3 7 1 -1 -1 -1 -0 1 2 3 6 8 8 5 8 5 5 5 4 5 6 5 6 5 5 3 3 3 3 3
4 4 4 4 4 3 3 3 3 3 3 3 2 2 2 5 5 -0 -1 -1 -0 1 2 3 4 5 8 6 5 7 6 5 4 4 5 4 5 5 5 4 3 3 3 3 3
4 4 4 4 4 4 4 4 4 4 3 3 2 2 3 7 0 -1 -0 0 1 1 2 2 4 4 5 6 7 6 5 5 5 5 5 6 5 5 5 3 4 3 4 3 3
4 4 4 4 4 4 4 4 4 4 3 2 1 1 3 4 -0 -0 -0 1 0 1 3 2 2 4 4 6 4 5 7 6 6 5 6 5 7 7 4 4 4 4 4 3 3
4 4 4 4 4 4 4 4 4 4 2 1 1 2 5 1 0 0 0 1 0 0 1 1 2 3 5 4 5 7 9 12 8 7 6 6 11 7 4 4 5 5 4 4 3
4 4 4 4 4 4 5 4 4 2 0 1 2 2 5 1 2 0 0 2 1 1 1 1 2 5 6 8 9 9 13 12 11 7 8 7 10 6 5 5 5 5 4 4 4
4 4 4 4 5 5 5 5 1 2 1 1 1 4 3 4 3 2 0 1 2 3 3 4 4 7 8 9 13 14 13 12 12 9 8 9 9 7 6 6 6 6 4 4 4
4 4 4 4 5 5 5 2 3 4 2 4 4 4 4 2 2 2 1 2 2 4 7 5 8 9 8 8 8 9 10 11 9 7 8 8 9 7 6 6 6 6 6 4 4
4 4 4 4 5 5 5 3 2 2 5 3 3 3 2 3 5 2 1 4 5 7 6 7 9 6 6 7 8 9 10 11 8 8 8 8 9 8 7 6 5 6 6 5 4
4 4 4 5 5 5 4 2 1 1 5 4 3 3 3 3 5 3 3 4 6 7 7 8 7 6 7 8 9 9 10 10 10 8 7 8 10 10 8 6 5 5 5 5 5
4 4 5 6 6 2 3 1 1 1 7 6 5 4 3 3 5 3 2 4 5 7 6 7 7 9 8 9 8 11 8 8 9 10 13 8 14 10 9 9 7 6 5 5 5
5 5 6 6 5 4 2 1 1 2 13 5 5 2 3 4 4 4 2 3 7 7 6 7 7 7 8 8 7 9 7 8 8 10 11 14 15 13 10 9 7 6 5 5 4
5 5 6 4 5 4 2 1 2 8 12 7 5 5 5 4 4 4 4 3 3 6 5 6 4 5 6 6 6 7 9 10 10 12 16 14 15 15 12 10 8 5 5 5 5
6 6 6 3 3 2 2 3 8 10 6 7 7 5 6 6 5 5 6 6 8 9 9 7 6 5 5 7 6 7 11 16 18 17 19 12 14 13 9 7 7 6 5 5 4
7 7 5 3 1 1 3 6 11 7 7 5 5 6 7 6 6 6 6 7 6 6 8 10 10 7 6 6 9 8 8 13 18 18 17 13 16 14 8 6 4 4 4 4 4
7 3 2 1 2 2 5 9 8 7 6 6 6 7 7 6 6 6 6 7 6 6 9 9 9 5 6 5 6 8 11 8 12 11 14 15 12 10 8 7 5 5 4 5 4
5 3 2 0 1 3 6 9 6 5 5 5 8 7 8 7 7 7 7 6 6 5 5 6 9 7 6 6 5 6 7 14 12 16 17 16 16 16 11 9 6 5 5 4 4
4 4 2 1 2 5 8 7 6 4 4 6 7 7 7 7 7 7 7 6 5 5 5 6 7 7 6 7 8 8 9 9 9 10 14 18 17 9 10 8 7 5 4 4 4
4 6 1 2 7 6 7 6 6 5 4 5 5 6 7 6 7 7 7 6 4 5 6 5 7 9 8 6 5 6 7 7 11 11 11 12 13 9 8 6 6 5 4 4 4
5 4 1 2 9 8 6 6 5 6 5 5 6 5 5 6 8 6 6 5 4 5 6 5 7 10 9 7 6 7 6 6 7 9 14 14 13 8 7 6 5 5 4 4 4
5 7 4 3 4 6 7 6 6 5 6 5 5 5 6 6 6 7 6 5 5 5 3 4 7 8 10 9 7 8 7 7 7 10 13 12 14 11 9 8 6 4 4 4 4
4 6 5 7 6 6 6 6 7 7 6 5 6 6 6 7 7 7 6 6 5 6 5 5 8 7 7 7 7 7 7 7 8 7 11 12 12 11 9 8 6 4 4 4 4
7 6 5 6 5 6 7 6 7 7 6 7 7 6 5 7 6 7 6 6 6 5 5 5 8 7 8 7 7 8 7 7 7 7 7 8 10 7 7 7 5 5 5 5 4
4 4 6 8 7 7 7 7 7 6 5 6 6 6 6 6 5 5 5 5 5 6 6 6 7 8 10 7 7 9 7 7 7 6 7 9 9 8 7 5 5 5 4 4 4